Location: Civry
(47.2902°N, 4.6156°E)
Time: 00:12:45
(UTC+00:00)

Nadezhda 1 Rocket - Pass Details

Date: 09 April 2020
Orbit: 940 x 1006 km, 83.0° (Epoch: 30 May)

Event Time Altitude Azimuth Distance (km) Brightness Sun altitude
Rises 19:16:19 0° 182° (S) 3,720 6.8 -9.5°
Reaches altitude 10° 19:18:51 10° 181° (S) 2,772 6.2 -9.9°
Maximum altitude 19:25:13 78° 96° (E) 1,024 4.0 -10.8°
Drops below altitude 10° 19:31:34 10° 11° (N) 2,761 6.6 -11.8°
Sets 19:34:05 0° 10° (N) 3,705 7.2 -12.2°
